TimeEST,TemperatureF,Dew PointF,Humidity,Sea Level PressureIn,VisibilityMPH,Wind Direction,Wind SpeedMPH,Gust SpeedMPH,PrecipitationIn,Events,Conditions,WindDirDegrees,DateUTC
12:53 AM,73.0,69.1,87,30.01,8.0,Calm,Calm,-,N/A,,Scattered Clouds,0,2012-12-09 05:53:00
1:53 AM,75.0,70.0,84,30.00,10.0,SE,3.5,-,N/A,,Clear,130,2012-12-09 06:53:00
2:53 AM,75.9,71.1,85,29.99,10.0,SE,4.6,-,N/A,,Scattered Clouds,140,2012-12-09 07:53:00
3:53 AM,75.9,70.0,82,29.99,10.0,SE,4.6,-,N/A,,Partly Cloudy,130,2012-12-09 08:53:00
4:53 AM,75.0,70.0,84,30.00,9.0,Calm,Calm,-,N/A,,Partly Cloudy,0,2012-12-09 09:53:00
5:04 AM,73.4,69.8,88,30.00,9.0,Calm,Calm,-,N/A,,Mostly Cloudy,0,2012-12-09 10:04:00
5:34 AM,73.4,69.8,88,30.01,7.0,Calm,Calm,-,N/A,,Partly Cloudy,0,2012-12-09 10:34:00
5:53 AM,73.0,69.1,87,30.02,7.0,Calm,Calm,-,N/A,,Scattered Clouds,0,2012-12-09 10:53:00
6:53 AM,72.0,68.0,87,30.03,5.0,Calm,Calm,-,N/A,,Clear,0,2012-12-09 11:53:00
7:53 AM,73.9,71.1,91,30.05,6.0,Calm,Calm,-,N/A,,Clear,0,2012-12-09 12:53:00
8:53 AM,79.0,73.0,82,30.06,10.0,Calm,Calm,-,0.01,,Partly Cloudy,0,2012-12-09 13:53:00
9:53 AM,82.0,72.0,71,30.08,10.0,SE,4.6,-,N/A,,Clear,130,2012-12-09 14:53:00
10:53 AM,82.0,72.0,71,30.07,10.0,SE,5.8,-,N/A,,Clear,130,2012-12-09 15:53:00
11:53 AM,82.9,73.0,72,30.06,10.0,SE,4.6,-,N/A,,Clear,130,2012-12-09 16:53:00
12:53 PM,84.0,73.0,69,30.03,10.0,Calm,Calm,-,N/A,,Partly Cloudy,0,2012-12-09 17:53:00
1:53 PM,82.9,72.0,69,30.00,10.0,Calm,Calm,-,N/A,,Clear,0,2012-12-09 18:53:00
2:53 PM,82.0,72.0,71,30.00,10.0,Calm,Calm,-,N/A,,Mostly Cloudy,0,2012-12-09 19:53:00
3:53 PM,81.0,72.0,74,29.99,10.0,Calm,Calm,-,N/A,,Clear,0,2012-12-09 20:53:00
4:53 PM,81.0,72.0,74,30.00,10.0,Variable,3.5,-,N/A,,Partly Cloudy,0,2012-12-09 21:53:00
5:53 PM,79.0,72.0,79,30.01,10.0,Calm,Calm,-,N/A,,Clear,0,2012-12-09 22:53:00
6:53 PM,78.1,72.0,81,30.02,10.0,Calm,Calm,-,N/A,,Clear,0,2012-12-09 23:53:00
7:53 PM,77.0,72.0,84,30.03,10.0,Calm,Calm,-,N/A,,Clear,0,2012-12-10 00:53:00
8:53 PM,77.0,72.0,84,30.03,10.0,East,3.5,-,N/A,,Scattered Clouds,80,2012-12-10 01:53:00
9:30 PM,78.8,71.6,78,30.03,10.0,ENE,3.5,-,N/A,,Mostly Cloudy,70,2012-12-10 02:30:00
9:50 PM,77.0,71.6,83,30.03,10.0,East,3.5,-,N/A,,Scattered Clouds,80,2012-12-10 02:50:00
9:53 PM,77.0,72.0,84,30.03,10.0,East,3.5,-,N/A,,Partly Cloudy,80,2012-12-10 02:53:00
10:53 PM,78.1,72.0,81,30.03,10.0,East,4.6,-,N/A,,Clear,90,2012-12-10 03:53:00
11:53 PM,78.1,72.0,81,30.02,10.0,Variable,4.6,-,N/A,,Partly Cloudy,0,2012-12-10 04:53:00